Regional Weather Roundup
Issued by NWS

Home | Current Version | Previous Version | Text Only | Print | Product List | Glossary On
Versions: 1 2 3 4 5 6 7 8 9 10 11 12 13 14 15 16 17 18 19 20 21 22 23 24 25 26 27 28 29 30 31 32 33 34 35 36 37 38 39 40 41 42 43 44 45 46 47 48 49 50
000
ASUS43 KDTX 300710
RWRMI
MICHIGAN HOURLY REGIONAL WEATHER ROUNDUP
NATIONAL WEATHER SERVICE DETROIT/PONTIAC MI
300 AM EDT MON MAY 30 2016

NOTE: "FAIR" INDICATES FEW OR NO CLOUDS BELOW 12,000 FEET WITH NO
SIGNIFICANT WEATHER AND/OR OBSTRUCTION TO VISIBILITY.

MIZ047>049-052>055-059>063-066>070-074>076-081>083-300800-
SOUTHEAST LOWER MICHIGAN

CITY           SKY/WX    TMP DP  RH WIND       PRES   REMARKS
ADRIAN         PTCLDY    61  56  83 CALM      30.00S
ALMA           CLEAR     61  58  88 W3        29.96S
ANN ARBOR      CLEAR     58  55  90 SW5       29.97F
BAD AXE        CLEAR     64  57  77 SW5       29.93S
CARO           CLEAR     60  56  86 SW3       29.93F
DETROIT CITY   CLEAR     65  56  72 S3        29.96S
DETROIT        CLEAR     63  56  78 S6        29.97F
FLINT          CLEAR     66  56  70 SW7       29.95F
GROSSE ILE     CLEAR     63  57  82 CALM      29.96S
HILLSDALE      CLEAR     60  55  84 CALM      30.01S
HOWELL         PTCLDY    61  56  83 SW5       29.97F

CITY           SKY/WX    TMP DP  RH WIND       PRES   REMARKS
JACKSON        CLEAR     60  57  89 SW7       29.99F
LAMBERTVILLE   CLEAR     60  56  88 CALM      29.99S
LANSING        CLEAR     64  57  78 W7        29.97F
LAPEER         FAIR      64  56  76 SW3       29.96S
MASON          CLEAR     64  56  75 CALM      29.98S
MONROE         CLEAR     60  59  96 NW3       29.97F
MT. CLEMENS    CLEAR     65  57  76 S5        29.95S
PONTIAC        CLEAR     64  56  75 SW5       29.96S
PORT HOPE        N/A     65  59  81 SW6       29.90S
PORT HURON     FOG       57  57 100 S3        29.95F VSB 1
TRI CITIES     CLEAR     66  58  75 SW8       29.94S
MIDLAND        FAIR      63  57  82 SW5       29.93S
TROY           CLEAR     67  56  67 SW5       29.98S
SAGINAW HB     CLEAR     64  55  72 SW7       29.93F
$$
MIZ043>046-050>051-056>058-064>065-071>073-077>080-300800-
SOUTHWEST LOWER MICHIGAN

CITY           SKY/WX    TMP DP  RH WIND       PRES   REMARKS
BATTLE CREEK   CLEAR     61  56  83 W7        30.00S
BENTON HARBOR  PTCLDY    65  56  72 W7        29.99S
BIG RAPIDS     PTCLDY    62  58  86 W6        29.95S
COLDWATER      CLEAR     60  55  85 SW3       30.01R
FREMONT        FAIR      57  57 100 CALM      29.97R
HOLLAND        CLEAR     63  56  78 W6        29.98S
GRAND RAPIDS   CLEAR     63  56  78 W6        29.98S
IONIA          FAIR      61  55  78 SW6       29.97S
KALAMAZOO      CLEAR     61  55  81 SW6       30.00R
LUDINGTON      CLEAR     55  54  96 CALM      29.96S
MARSHALL       CLEAR     62  57  82 CALM      29.99S
MOUNT PLEASANT CLEAR     63  57  82 SW6       29.94S
MUSKEGON       PTCLDY    62  54  74 W3        29.97R
SOUTH HAVEN    MOCLDY    67  57  69 W3        29.99S
$$
MIZ016>042-300800-
NORTHERN LOWER MICHIGAN

CITY           SKY/WX    TMP DP  RH WIND       PRES   REMARKS
ALPENA         CLEAR     63  57  81 CALM      29.88R
BEAVER ISLAND  MOCLDY    54  53  97 W9        29.90R
BELLAIRE       CLEAR     62  56  81 CALM      29.92S
CADILLAC       CLEAR     57  56  96 CALM      29.95S
CHARLEVOIX     CLEAR     59  56  90 W12       29.94R
FRANKFORT      CLEAR     53  52  97 CALM      29.95S
GAYLORD        CLEAR     61  57  87 W8        29.92R
GRAYLING       PTCLDY    62  58  84 W6        29.94R
HARBOR SPRINGS PTCLDY    55  54  96 SW5       29.90S
HOUGHTON LAKE  PTCLDY    63  59  87 W9        29.94R
OSCODA         CLEAR     65  58  78 W7        29.89S
PELLSTON       PTCLDY    59  56  89 SW3       29.89S
ROGERS CITY    MOCLDY    63  57  81 W6        29.88S
TRAVERSE CITY  CLEAR     63  58  83 SW3       29.91S
$$
MIZ007>008-015-300800-
EASTERN UPPER MICHIGAN

CITY           SKY/WX    TMP DP  RH WIND       PRES   REMARKS
KINROSS          N/A     55  55 100 SW3       29.85S
MACKINAC ISLAN CLOUDY    55  55 100 SW8       29.87S
NEWBERRY       CLOUDY    60  58  92 W9        29.86S
S. S. MARIE    CLOUDY    59  57  93 W9        29.83S FOG
MUNISING         N/A     58  55  90 SW8       29.87R
$$
MIZ004>006-011>014-085-300800-
CENTRAL UPPER MICHIGAN

CITY           SKY/WX    TMP DP  RH WIND       PRES   REMARKS
MANISTIQUE     CLEAR     58  57  96 W6        29.88S
ESCANABA       CLEAR     57  54  88 W7        29.91S
MENOMINEE      PTCLDY    59  57  94 W3        29.94F
SAWYER-GWINN   CLEAR     54  52  94 W6        29.91R
$$
MIZ001>003-009>011-084-300800-
WESTERN UPPER MICHIGAN

CITY           SKY/WX    TMP DP  RH WIND       PRES   REMARKS
IRON MOUNTAIN  CLEAR     55  53  93 CALM      29.93R
HOUGHTON       CLEAR     54  51  90 W9        29.87R
COPPER HARBOR    N/A     60  53  77 NW9G21    29.84R
IRONWOOD       PTCLDY    54  52  94 W5        29.91R
$$

ABBREVIATIONS USED IN REMARKS
   TC - TEMPERATURE IN CELSIUS
  WCI - WIND CHILL INDEX
   HX - HEAT INDEX
  VSB - VISIBILITY





USA.gov is the U.S. government's official web portal to all federal, state and local government web resources and services.